Regional Weather Roundup
Issued by NWS Sioux Falls, SD

Home | Current Version | Previous Version | Text Only | Print | Product List | Glossary On
Versions: 1 2 3 4 5 6 7 8 9 10 11 12 13 14 15 16 17 18 19 20 21 22 23 24 25 26 27 28 29 30 31 32 33 34 35 36 37 38 39 40 41 42 43 44 45 46 47 48 49 50
000
ASUS43 KFSD 062210
RWRFSD

WEATHER ROUNDUP FOR SE SOUTH DAKOTA/SW MINNESOTA/NW IOWA
NATIONAL WEATHER SERVICE SIOUX FALLS SD
500 PM CDT WED MAY 06 2015

NOTE: "FAIR" INDICATES FEW OR NO CLOUDS BELOW 12,000 FEET WITH NO
SIGNIFICANT WEATHER AND OR OBSTRUCTIONS TO VISIBILITY.


SDZ038>040-050-052>070-062300-
SOUTHEAST SOUTH DAKOTA

CITY           SKY/WX    TMP DP  RH WIND       PRES   REMARKS
BROOKINGS      PTSUNNY   68  63  83 S17G24    29.72F
CHAMBERLAIN    LGT RAIN  61  59  93 SW5       29.62F
HURON          PTSUNNY   71  63  75 S10       29.63F
MADISON        MOCLDY    68  68 100 S22G30    29.70F
MITCHELL       MOSUNNY   73  60  63 S22G31    29.64F
SIOUX FALLS    CLOUDY    68  60  75 S23G41    29.73S
WINNER         LGT RAIN  65  55  70 S23       29.62S
YANKTON        PTSUNNY   68  61  77 SE22      29.69F
$$

MNZ071-072-080-081-089-090-097-098-062300-
SOUTHWEST MINNESOTA

CITY           SKY/WX    TMP DP  RH WIND       PRES   REMARKS
FAIRMONT       MOSUNNY   73  46  38 S25G31    29.82S
JACKSON        MOSUNNY   73  54  49 S22G35    29.83S
LUVERNE        LGT RAIN  68  61  77 S24G37    29.77S
MARSHALL       PTSUNNY   73  57  56 S24G32    29.74F
MONTEVIDEO     CLOUDY    72  61  68 SW21G31   29.74F
REDWOOD FALLS  MOSUNNY   76  60  57 S26G35    29.76F
TRACY          PTSUNNY   74  58  56 S24G35    29.76F
WORTHINGTON    CLOUDY    70  57  64 S31G39    29.81R
$$

IAZ001>003-012>014-020>022-031-032-NEZ013-014-SDZ071-062300-
NORTHWEST IOWA

CITY           SKY/WX    TMP DP  RH WIND       PRES   REMARKS
CHEROKEE       CLOUDY    67  65  94 S13       29.80F
DENISON        CLOUDY    72  63  73 S22G31    29.79F
ESTHERVILLE    PTSUNNY   72  58  61 S25G38    29.82S
LE MARS        PTSUNNY   68  63  83 SE17G26   29.77F
ORANGE CITY    PTSUNNY   64  61  88 SE13G20   29.78F
SHELDON        CLOUDY    64 N/A N/A S21G29    29.79F
SIOUX CITY     CLOUDY    68  62  81 S16       29.76F
SPENCER        CLOUDY    67  63  87 S16G24    29.83R
STORM LAKE     CLOUDY    68  64  88 S18G25    29.83F
$$

ABBREVIATIONS USED IN REMARKS
   TC - TEMPERATURE IN CELSIUS
  WCI - WIND CHILL INDEX
   HX - HEAT INDEX
  VSB - VISIBILITY




USA.gov is the U.S. government's official web portal to all federal, state and local government web resources and services.